TimeEDT,TemperatureF,Dew PointF,Humidity,Sea Level PressureIn,VisibilityMPH,Wind Direction,Wind SpeedMPH,Gust SpeedMPH,PrecipitationIn,Events,Conditions,WindDirDegrees,DateUTC
12:53 AM,62.1,52.0,70,30.09,10.0,SSE,8.1,-,N/A,,Clear,150,2013-09-07 04:53:00
1:53 AM,61.0,51.1,70,30.08,10.0,SSE,9.2,-,N/A,,Clear,160,2013-09-07 05:53:00
2:53 AM,62.1,50.0,65,30.09,10.0,SSE,6.9,-,N/A,,Clear,160,2013-09-07 06:53:00
3:53 AM,60.1,48.9,67,30.08,10.0,SSE,5.8,-,N/A,,Clear,150,2013-09-07 07:53:00
4:53 AM,59.0,48.0,67,30.07,10.0,South,5.8,-,N/A,,Clear,170,2013-09-07 08:53:00
5:53 AM,59.0,48.0,67,30.06,10.0,SSE,6.9,-,N/A,,Clear,160,2013-09-07 09:53:00
6:53 AM,57.9,48.0,70,30.06,10.0,SSE,6.9,-,N/A,,Clear,160,2013-09-07 10:53:00
7:53 AM,61.0,48.0,62,30.06,10.0,SSE,9.2,-,N/A,,Clear,160,2013-09-07 11:53:00
8:53 AM,66.0,48.9,54,30.05,10.0,South,6.9,-,N/A,,Clear,180,2013-09-07 12:53:00
9:53 AM,71.1,48.9,45,30.04,10.0,SSW,8.1,-,N/A,,Mostly Cloudy,200,2013-09-07 13:53:00
10:53 AM,75.0,51.1,43,30.03,10.0,South,6.9,-,N/A,,Mostly Cloudy,190,2013-09-07 14:53:00
11:53 AM,75.9,53.1,45,30.02,10.0,SW,8.1,-,N/A,,Mostly Cloudy,230,2013-09-07 15:53:00
12:53 PM,79.0,55.9,45,30.00,10.0,Variable,4.6,-,N/A,,Mostly Cloudy,0,2013-09-07 16:53:00
1:53 PM,79.0,59.0,50,30.00,10.0,WSW,6.9,-,N/A,,Mostly Cloudy,250,2013-09-07 17:53:00
2:53 PM,78.1,64.0,62,29.97,10.0,West,5.8,-,N/A,,Overcast,270,2013-09-07 18:53:00
3:53 PM,79.0,64.0,60,29.95,10.0,WSW,6.9,-,N/A,,Partly Cloudy,250,2013-09-07 19:53:00
4:53 PM,81.0,63.0,54,29.92,10.0,SW,6.9,-,N/A,,Partly Cloudy,230,2013-09-07 20:53:00
5:53 PM,81.0,64.9,58,29.92,10.0,West,5.8,-,N/A,,Scattered Clouds,260,2013-09-07 21:53:00
6:53 PM,78.1,66.9,68,29.92,10.0,West,4.6,-,N/A,,Mostly Cloudy,260,2013-09-07 22:53:00
7:53 PM,75.9,70.0,82,29.92,10.0,West,4.6,-,N/A,,Overcast,260,2013-09-07 23:53:00
8:53 PM,73.9,69.1,85,29.93,10.0,SW,5.8,-,N/A,,Overcast,230,2013-09-08 00:53:00
9:53 PM,75.9,63.0,64,29.91,10.0,SSW,4.6,-,N/A,,Overcast,210,2013-09-08 01:53:00
10:53 PM,75.9,64.9,69,29.91,10.0,SSE,3.5,-,N/A,,Overcast,160,2013-09-08 02:53:00
11:53 PM,75.0,64.9,71,29.90,10.0,SSE,4.6,-,N/A,,Overcast,160,2013-09-08 03:53:00